• In Österreich
  • Länderverzeichnis
  • Für 7 Tage
  • Wassertemperatur
  • Satellitenkarten
  • Wetterkarte
  • News
  • Widgets
  • user-avatar
    Anmelden

    Stündliche Wetter Montana

    Heute, 25 Februar, Sonntag

    Zeit Temperatur Niederschläge Wind Luftdruck Luftfeuchtigkeit
    00:00 -2°C° 0 mm 2 m/S 732 mmHg 81%
    01:00 -2°C° 0 mm 2 m/S 732 mmHg 81%
    02:00 -2°C° 0 mm 3 m/S 732 mmHg 82%
    03:00 -3°C° 0 mm 2 m/S 733 mmHg 81%
    04:00 -3°C° 0 mm 2 m/S 733 mmHg 80%
    05:00 -3°C° 0 mm 2 m/S 733 mmHg 79%
    06:00 -3°C° 0 mm 2 m/S 733 mmHg 78%
    07:00 -3°C° 0 mm 2 m/S 733 mmHg 77%
    08:00 -1°C° 0 mm 1 m/S 733 mmHg 75%
    09:00 -3°C° 0,1 mm 2 m/S 734 mmHg 73%
    10:00 -3°C° 0,1 mm 2 m/S 734 mmHg 71%
    11:00 -2°C° 0,1 mm 2 m/S 734 mmHg 69%
    12:00 -2°C° 0,3 mm 2 m/S 734 mmHg 72%
    13:00 -2°C° 0,3 mm 2 m/S 734 mmHg 76%
    14:00 -2°C° 0,3 mm 2 m/S 733 mmHg 79%
    15:00 -3°C° 0,6 mm 2 m/S 733 mmHg 83%
    16:00 -4°C° 0,6 mm 3 m/S 733 mmHg 86%
    17:00 -4°C° 0,6 mm 3 m/S 733 mmHg 90%
    18:00 -5°C° 0,6 mm 3 m/S 733 mmHg 91%
    19:00 -5°C° 0,6 mm 3 m/S 733 mmHg 92%
    20:00 -6°C° 0,6 mm 3 m/S 733 mmHg 93%
    21:00 -6°C° 0,4 mm 3 m/S 733 mmHg 93%
    22:00 -6°C° 0,4 mm 3 m/S 733 mmHg 93%
    23:00 -6°C° 0,4 mm 3 m/S 732 mmHg 93%

    Morgen, 26 Februar, Montag

    Zeit Temperatur Niederschläge Wind Luftdruck Luftfeuchtigkeit
    00:00 -6°C° 0,5 mm 3 m/S 732 mmHg 93%
    01:00 -7°C° 0,5 mm 4 m/S 732 mmHg 93%
    02:00 -7°C° 0,5 mm 4 m/S 731 mmHg 93%
    03:00 -8°C° 0,9 mm 4 m/S 731 mmHg 94%
    04:00 -8°C° 0,9 mm 4 m/S 731 mmHg 94%
    05:00 -8°C° 0,9 mm 4 m/S 730 mmHg 94%
    06:00 -10°C° 0,9 mm 5 m/S 730 mmHg 94%
    07:00 -10°C° 0,9 mm 5 m/S 730 mmHg 94%
    08:00 -10°C° 0,9 mm 5 m/S 730 mmHg 94%
    09:00 -10°C° 0,7 mm 5 m/S 730 mmHg 94%
    10:00 -10°C° 0,7 mm 5 m/S 729 mmHg 93%
    11:00 -10°C° 0,7 mm 5 m/S 729 mmHg 93%
    12:00 -10°C° 0,8 mm 5 m/S 729 mmHg 93%
    13:00 -10°C° 0,8 mm 5 m/S 729 mmHg 93%
    14:00 -10°C° 0,8 mm 5 m/S 729 mmHg 93%
    15:00 -11°C° 0,7 mm 5 m/S 729 mmHg 93%
    16:00 -10°C° 0,7 mm 4 m/S 729 mmHg 93%
    17:00 -10°C° 0,7 mm 4 m/S 729 mmHg 93%
    18:00 -11°C° 0,5 mm 4 m/S 729 mmHg 94%
    19:00 -11°C° 0,5 mm 4 m/S 729 mmHg 94%
    20:00 -11°C° 0,5 mm 4 m/S 729 mmHg 94%
    21:00 -11°C° 0,3 mm 4 m/S 729 mmHg 94%
    22:00 -12°C° 0,3 mm 3 m/S 729 mmHg 94%
    23:00 -12°C° 0,3 mm 3 m/S 729 mmHg 94%

    übermorgen, 27 Februar, Dienstag

    Zeit Temperatur Niederschläge Wind Luftdruck Luftfeuchtigkeit
    00:00 -12°C° 0,2 mm 3 m/S 729 mmHg 94%
    01:00 -12°C° 0,2 mm 3 m/S 728 mmHg 95%
    02:00 -12°C° 0,2 mm 3 m/S 728 mmHg 95%
    03:00 -12°C° 0,4 mm 3 m/S 728 mmHg 95%
    04:00 -12°C° 0,4 mm 3 m/S 728 mmHg 95%
    05:00 -12°C° 0,4 mm 3 m/S 728 mmHg 95%
    06:00 -12°C° 0,4 mm 3 m/S 728 mmHg 95%
    07:00 -12°C° 0,4 mm 3 m/S 728 mmHg 95%
    08:00 -12°C° 0,4 mm 3 m/S 728 mmHg 94%
    09:00 -10°C° 0,2 mm 3 m/S 728 mmHg 93%
    10:00 -9°C° 0,2 mm 3 m/S 728 mmHg 92%
    11:00 -8°C° 0,2 mm 3 m/S 728 mmHg 90%
    12:00 -8°C° 0,1 mm 3 m/S 728 mmHg 90%
    13:00 -7°C° 0,1 mm 3 m/S 728 mmHg 90%
    14:00 -6°C° 0,1 mm 3 m/S 728 mmHg 90%
    15:00 -6°C° 0,2 mm 2 m/S 729 mmHg 91%
    16:00 -6°C° 0,2 mm 2 m/S 729 mmHg 92%
    17:00 -6°C° 0,2 mm 2 m/S 729 mmHg 93%
    18:00 -7°C° 0,1 mm 2 m/S 730 mmHg 94%
    19:00 -8°C° 0,1 mm 2 m/S 731 mmHg 95%
    20:00 -8°C° 0,1 mm 1 m/S 731 mmHg 96%
    21:00 -8°C° 0,1 mm 1 m/S 731 mmHg 95%
    22:00 -8°C° 0,1 mm 1 m/S 732 mmHg 95%
    23:00 -9°C° 0,1 mm 1 m/S 732 mmHg 95%

    28 Februar, Mittwoch

    Zeit Temperatur Niederschläge Wind Luftdruck Luftfeuchtigkeit
    00:00 -9°C° 0,1 mm 1 m/S 732 mmHg 95%
    01:00 -9°C° 0,1 mm 1 m/S 732 mmHg 96%
    02:00 -8°C° 0,1 mm 1 m/S 733 mmHg 96%
    03:00 -9°C° 0,2 mm 1 m/S 732 mmHg 96%
    04:00 -9°C° 0,2 mm 1 m/S 732 mmHg 96%
    05:00 -9°C° 0,2 mm 1 m/S 732 mmHg 96%
    06:00 -9°C° 0,3 mm 1 m/S 732 mmHg 96%
    07:00 -10°C° 0,3 mm 2 m/S 732 mmHg 95%
    08:00 -10°C° 0,3 mm 2 m/S 732 mmHg 95%
    09:00 -10°C° 0,2 mm 2 m/S 732 mmHg 94%
    10:00 -9°C° 0,2 mm 2 m/S 732 mmHg 93%
    11:00 -8°C° 0,2 mm 2 m/S 732 mmHg 91%
    12:00 -8°C° 0,1 mm 2 m/S 732 mmHg 91%
    13:00 -7°C° 0,1 mm 2 m/S 732 mmHg 90%
    14:00 -7°C° 0,1 mm 2 m/S 732 mmHg 90%
    15:00 -7°C° 0,1 mm 2 m/S 732 mmHg 90%
    16:00 -7°C° 0,1 mm 2 m/S 732 mmHg 91%
    17:00 -7°C° 0,1 mm 1 m/S 733 mmHg 92%
    18:00 -8°C° 0,1 mm 1 m/S 733 mmHg 92%
    19:00 -9°C° 0,1 mm 1 m/S 734 mmHg 93%
    20:00 -9°C° 0,1 mm 1 m/S 734 mmHg 94%
    21:00 -10°C° 0 mm 1 m/S 735 mmHg 93%
    22:00 -10°C° 0 mm 1 m/S 736 mmHg 92%
    23:00 -10°C° 0 mm 1 m/S 736 mmHg 91%

    1 März, Donnerstag

    Zeit Temperatur Niederschläge Wind Luftdruck Luftfeuchtigkeit
    00:00 -11°C° 0 mm 1 m/S 736 mmHg 91%
    01:00 -11°C° 0 mm 1 m/S 736 mmHg 90%
    02:00 -11°C° 0 mm 1 m/S 736 mmHg 89%
    03:00 -13°C° 0 mm 2 m/S 737 mmHg 88%
    04:00 -13°C° 0 mm 2 m/S 737 mmHg 88%
    05:00 -13°C° 0 mm 2 m/S 737 mmHg 88%
    06:00 -13°C° 0 mm 2 m/S 737 mmHg 87%
    07:00 -13°C° 0 mm 2 m/S 737 mmHg 87%
    08:00 -13°C° 0 mm 2 m/S 738 mmHg 86%
    09:00 -8°C° 0 mm 1 m/S 738 mmHg 83%
    10:00 -6°C° 0 mm 1 m/S 738 mmHg 80%
    11:00 -2°C° 0 mm 1 m/S 737 mmHg 76%
    12:00 -2°C° 0 mm 1 m/S 737 mmHg 76%
    13:00 -1°C° 0 mm 1 m/S 736 mmHg 76%
    14:00 0°C° 0 mm 1 m/S 736 mmHg 76%
    15:00 0°C° 0 mm 1 m/S 735 mmHg 79%
    16:00 0°C° 0 mm 1 m/S 735 mmHg 82%
    17:00 -1°C° 0 mm 1 m/S 735 mmHg 85%
    18:00 -2°C° 0 mm 1 m/S 735 mmHg 86%
    19:00 -3°C° 0 mm 1 m/S 735 mmHg 86%
    20:00 -6°C° 0 mm 1 m/S 735 mmHg 86%
    21:00 -6°C° 0 mm 1 m/S 735 mmHg 86%
    22:00 -6°C° 0 mm 1 m/S 735 mmHg 87%
    23:00 -6°C° 0 mm 1 m/S 735 mmHg 87%

    2 März, Freitag

    Zeit Temperatur Niederschläge Wind Luftdruck Luftfeuchtigkeit
    00:00 -6°C° 0 mm 1 m/S 735 mmHg 88%
    01:00 -6°C° 0 mm 1 m/S 735 mmHg 88%
    02:00 -4°C° 0 mm 1 m/S 734 mmHg 89%
    03:00 -6°C° 0,1 mm 1 m/S 734 mmHg 91%
    04:00 -6°C° 0,1 mm 1 m/S 733 mmHg 92%
    05:00 -7°C° 0,1 mm 2 m/S 733 mmHg 93%
    06:00 -6°C° 0,2 mm 1 m/S 733 mmHg 93%
    07:00 -4°C° 0,2 mm 1 m/S 733 mmHg 94%
    08:00 -4°C° 0,2 mm 1 m/S 733 mmHg 94%
    09:00 -3°C° 0,2 mm 1 m/S 732 mmHg 94%
    10:00 -4°C° 0,2 mm 2 m/S 732 mmHg 94%
    11:00 -4°C° 0,2 mm 2 m/S 732 mmHg 94%
    12:00 -3°C° 0,2 mm 2 m/S 731 mmHg 94%
    13:00 -3°C° 0,2 mm 2 m/S 731 mmHg 95%
    14:00 -2°C° 0,2 mm 2 m/S 730 mmHg 95%
    15:00 -2°C° 0,2 mm 2 m/S 730 mmHg 95%
    16:00 -2°C° 0,2 mm 2 m/S 730 mmHg 96%
    17:00 -2°C° 0,2 mm 2 m/S 729 mmHg 96%
    18:00 0°C° 0,5 mm 1 m/S 729 mmHg 96%
    19:00 0°C° 0,5 mm 1 m/S 729 mmHg 97%
    20:00 -1°C° 0,5 mm 1 m/S 729 mmHg 97%
    21:00 -1°C° 0,9 mm 1 m/S 729 mmHg 97%
    22:00 -1°C° 0,9 mm 1 m/S 729 mmHg 97%
    23:00 -1°C° 0,9 mm 1 m/S 729 mmHg 97%
    Mehr zeigen